When you browse on this site, cookies collect data to enhance your experience and personalize the content and advertising you see.
Visit our Privacy Policy to learn more. By continuing to use the site, you agree to this use of cookies and data.
  • In Hungary
  • List of Countries
  • For 7 days
  • Water Temperature
  • Weather Map
  • News
  • Weather Widgets
  • user-avatar
    Login

    Hourly Weather Ciemierow

    Today, 31 May, Sunday

    Time Temperature Precipitation Wind Pressure Humidity
    00:00 +10°C° 0 mm 5 mps 755 mmHg 67%
    01:00 +10°C° 0 mm 5 mps 755 mmHg 67%
    02:00 +9°C° 0.6 mm 5 mps 755 mmHg 74%
    03:00 +9°C° 0.6 mm 5 mps 754 mmHg 81%
    04:00 +8°C° 0.6 mm 5 mps 754 mmHg 89%
    05:00 +9°C° 1.1 mm 6 mps 754 mmHg 90%
    06:00 +9°C° 1.1 mm 6 mps 754 mmHg 91%
    07:00 +9°C° 1.1 mm 6 mps 754 mmHg 93%
    08:00 +11°C° 0.1 mm 6 mps 754 mmHg 88%
    09:00 +13°C° 0.1 mm 6 mps 754 mmHg 83%
    10:00 +15°C° 0.1 mm 6 mps 754 mmHg 77%
    11:00 +16°C° 0 mm 6 mps 755 mmHg 74%
    12:00 +17°C° 0 mm 6 mps 755 mmHg 71%
    13:00 +19°C° 0 mm 6 mps 755 mmHg 68%
    14:00 +19°C° 0.1 mm 6 mps 755 mmHg 70%
    15:00 +19°C° 0.1 mm 5 mps 755 mmHg 72%
    16:00 +19°C° 0.1 mm 5 mps 755 mmHg 73%
    17:00 +17°C° 0 mm 5 mps 756 mmHg 75%
    18:00 +16°C° 0 mm 5 mps 756 mmHg 77%
    19:00 +16°C° 0 mm 5 mps 757 mmHg 79%
    20:00 +14°C° 0 mm 4 mps 757 mmHg 80%
    21:00 +13°C° 0 mm 4 mps 757 mmHg 82%
    22:00 +12°C° 0 mm 4 mps 758 mmHg 84%
    23:00 +11°C° 0 mm 4 mps 758 mmHg 85%

    Tomorrow, 1 June, Monday

    Time Temperature Precipitation Wind Pressure Humidity
    00:00 +11°C° 0 mm 4 mps 758 mmHg 87%
    01:00 +10°C° 0 mm 4 mps 759 mmHg 88%
    02:00 +8°C° 0 mm 4 mps 759 mmHg 89%
    03:00 +8°C° 0 mm 4 mps 758 mmHg 90%
    04:00 +8°C° 0 mm 3 mps 758 mmHg 90%
    05:00 +8°C° 0 mm 4 mps 759 mmHg 86%
    06:00 +11°C° 0 mm 4 mps 759 mmHg 81%
    07:00 +12°C° 0 mm 4 mps 759 mmHg 77%
    08:00 +14°C° 0 mm 4 mps 759 mmHg 71%
    09:00 +15°C° 0 mm 5 mps 759 mmHg 65%
    10:00 +16°C° 0 mm 6 mps 759 mmHg 59%
    11:00 +17°C° 0 mm 6 mps 759 mmHg 57%
    12:00 +17°C° 0 mm 6 mps 759 mmHg 54%
    13:00 +17°C° 0 mm 6 mps 759 mmHg 51%
    14:00 +17°C° 0 mm 6 mps 759 mmHg 53%
    15:00 +17°C° 0 mm 6 mps 758 mmHg 55%
    16:00 +17°C° 0 mm 6 mps 758 mmHg 56%
    17:00 +16°C° 0 mm 5 mps 758 mmHg 62%
    18:00 +15°C° 0 mm 4 mps 758 mmHg 68%
    19:00 +14°C° 0 mm 4 mps 758 mmHg 74%
    20:00 +12°C° 0 mm 3 mps 758 mmHg 76%
    21:00 +11°C° 0 mm 3 mps 758 mmHg 78%
    22:00 +10°C° 0 mm 2 mps 758 mmHg 80%
    23:00 +9°C° 0 mm 2 mps 758 mmHg 82%

    Day after tomorrow, 2 June, Tuesday

    Time Temperature Precipitation Wind Pressure Humidity
    00:00 +9°C° 0 mm 3 mps 757 mmHg 83%
    01:00 +8°C° 0 mm 3 mps 757 mmHg 84%
    02:00 +8°C° 0 mm 3 mps 757 mmHg 86%
    03:00 +8°C° 0 mm 3 mps 757 mmHg 88%
    04:00 +8°C° 0 mm 3 mps 756 mmHg 90%
    05:00 +10°C° 0 mm 4 mps 756 mmHg 86%
    06:00 +11°C° 0 mm 4 mps 756 mmHg 83%
    07:00 +12°C° 0 mm 4 mps 756 mmHg 79%
    08:00 +13°C° 0.1 mm 5 mps 756 mmHg 76%
    09:00 +14°C° 0.1 mm 5 mps 755 mmHg 73%
    10:00 +15°C° 0.1 mm 6 mps 755 mmHg 70%
    11:00 +16°C° 0 mm 6 mps 755 mmHg 67%
    12:00 +16°C° 0 mm 6 mps 754 mmHg 64%
    13:00 +17°C° 0 mm 6 mps 754 mmHg 61%
    14:00 +17°C° 0.1 mm 6 mps 753 mmHg 61%
    15:00 +17°C° 0.1 mm 6 mps 753 mmHg 61%
    16:00 +19°C° 0.1 mm 6 mps 752 mmHg 61%
    17:00 +17°C° 0.2 mm 5 mps 752 mmHg 66%
    18:00 +17°C° 0.2 mm 3 mps 752 mmHg 72%
    19:00 +16°C° 0.2 mm 2 mps 751 mmHg 78%
    20:00 +15°C° 0 mm 2 mps 751 mmHg 77%
    21:00 +14°C° 0 mm 2 mps 751 mmHg 76%
    22:00 +13°C° 0 mm 2 mps 751 mmHg 75%
    23:00 +12°C° 0 mm 2 mps 751 mmHg 77%

    3 June, Wednesday

    Time Temperature Precipitation Wind Pressure Humidity
    00:00 +10°C° 0 mm 2 mps 751 mmHg 79%
    01:00 +11°C° 0 mm 1 mps 750 mmHg 81%
    02:00 +10°C° 0 mm 1 mps 750 mmHg 82%
    03:00 +10°C° 0 mm 1 mps 750 mmHg 84%
    04:00 +9°C° 0 mm 1 mps 750 mmHg 85%
    05:00 +10°C° 0 mm 1 mps 749 mmHg 81%
    06:00 +12°C° 0 mm 2 mps 749 mmHg 77%
    07:00 +13°C° 0 mm 2 mps 749 mmHg 73%
    08:00 +14°C° 0 mm 2 mps 749 mmHg 67%
    09:00 +16°C° 0 mm 2 mps 749 mmHg 61%
    10:00 +17°C° 0 mm 2 mps 749 mmHg 55%
    11:00 +18°C° 0 mm 2 mps 748 mmHg 53%
    12:00 +19°C° 0 mm 2 mps 748 mmHg 51%
    13:00 +20°C° 0 mm 2 mps 748 mmHg 49%
    14:00 +20°C° 0 mm 2 mps 748 mmHg 50%
    15:00 +19°C° 0 mm 2 mps 747 mmHg 51%
    16:00 +19°C° 0 mm 2 mps 747 mmHg 53%
    17:00 +18°C° 0 mm 2 mps 747 mmHg 58%
    18:00 +17°C° 0 mm 2 mps 747 mmHg 63%
    19:00 +16°C° 0 mm 1 mps 747 mmHg 68%
    20:00 +15°C° 0 mm 1 mps 747 mmHg 71%
    21:00 +13°C° 0 mm 1 mps 747 mmHg 74%
    22:00 +12°C° 0 mm 1 mps 747 mmHg 77%
    23:00 +11°C° 0 mm 1 mps 747 mmHg 80%

    4 June, Thursday

    Time Temperature Precipitation Wind Pressure Humidity
    00:00 +10°C° 0 mm 1 mps 747 mmHg 83%
    01:00 +10°C° 0 mm 1 mps 747 mmHg 86%
    02:00 +10°C° 0 mm 1 mps 746 mmHg 86%
    03:00 +9°C° 0 mm 1 mps 746 mmHg 86%
    04:00 +9°C° 0 mm 1 mps 746 mmHg 87%
    05:00 +11°C° 0 mm 1 mps 746 mmHg 82%
    06:00 +13°C° 0 mm 2 mps 746 mmHg 76%
    07:00 +15°C° 0 mm 2 mps 745 mmHg 71%
    08:00 +16°C° 0 mm 2 mps 745 mmHg 66%
    09:00 +18°C° 0 mm 3 mps 745 mmHg 60%
    10:00 +20°C° 0 mm 3 mps 744 mmHg 55%
    11:00 +20°C° 0 mm 3 mps 744 mmHg 54%
    12:00 +21°C° 0 mm 4 mps 743 mmHg 54%
    13:00 +22°C° 0 mm 4 mps 743 mmHg 53%
    14:00 +20°C° 0.5 mm 3 mps 743 mmHg 63%
    15:00 +19°C° 0.5 mm 3 mps 742 mmHg 73%
    16:00 +17°C° 0.5 mm 2 mps 742 mmHg 82%
    17:00 +17°C° 1.5 mm 3 mps 741 mmHg 87%
    18:00 +16°C° 1.5 mm 3 mps 741 mmHg 91%
    19:00 +14°C° 1.5 mm 4 mps 741 mmHg 96%
    20:00 +14°C° 0.2 mm 4 mps 741 mmHg 96%
    21:00 +13°C° 0.2 mm 5 mps 741 mmHg 96%
    22:00 +12°C° 0.2 mm 5 mps 741 mmHg 96%
    23:00 +11°C° 0 mm 6 mps 742 mmHg 94%

    5 June, Friday

    Time Temperature Precipitation Wind Pressure Humidity
    00:00 +11°C° 0 mm 7 mps 742 mmHg 92%
    01:00 +10°C° 0 mm 8 mps 742 mmHg 90%
    02:00 +10°C° 0 mm 7 mps 742 mmHg 90%
    03:00 +9°C° 0 mm 7 mps 743 mmHg 90%
    04:00 +9°C° 0 mm 6 mps 743 mmHg 91%
    05:00 +9°C° 0 mm 6 mps 744 mmHg 88%
    06:00 +9°C° 0 mm 7 mps 744 mmHg 86%
    07:00 +9°C° 0 mm 7 mps 745 mmHg 83%
    08:00 +10°C° 0.1 mm 7 mps 745 mmHg 78%
    09:00 +11°C° 0.1 mm 7 mps 746 mmHg 72%
    10:00 +11°C° 0.1 mm 8 mps 746 mmHg 67%
    11:00 +12°C° 0 mm 7 mps 746 mmHg 65%
    12:00 +14°C° 0 mm 7 mps 746 mmHg 63%
    13:00 +15°C° 0 mm 7 mps 746 mmHg 61%
    14:00 +15°C° 0 mm 7 mps 746 mmHg 60%
    15:00 +15°C° 0 mm 6 mps 746 mmHg 60%
    16:00 +16°C° 0 mm 5 mps 746 mmHg 59%
    17:00 +15°C° 0 mm 4 mps 746 mmHg 65%
    18:00 +16°C° 0 mm 3 mps 746 mmHg 70%
    19:00 +15°C° 0 mm 2 mps 746 mmHg 75%
    20:00 +14°C° 0 mm 2 mps 746 mmHg 76%
    21:00 +12°C° 0 mm 3 mps 746 mmHg 77%
    22:00 +11°C° 0 mm 3 mps 746 mmHg 78%
    23:00 +11°C° 0 mm 3 mps 746 mmHg 80%
    Show more